Regional Weather Roundup
Issued by NWS

Home | Current Version | Previous Version | Text Only | Print | Product List | Glossary Off
Versions: 1 2 3 4 5 6 7 8 9 10 11 12 13 14 15 16 17 18 19 20 21 22 23 24 25 26 27

000
ASUS45 KCYS 212110
RWRWY

WYOMING REGIONAL WEATHER ROUNDUP
NATIONAL WEATHER SERVICE CHEYENNE WY
300 PM MDT WED JUN 21 2017

NOTE:  "FAIR" INDICATES FEW OR NO CLOUDS BELOW 12,000 FEET
WITH NO SIGNIFICANT WEATHER AND/OR OBSTRUCTIONS TO VISIBILITY.

WYZ001-212200-
YELLOWSTONE NATIONAL PARK

CITY           SKY/WX    TMP DP  RH WIND       PRES   REMARKS
LK YELLOWSTONE   N/A     72  33  24 W12G25    30.17F
W YELLOWSTONE  NOT AVBL

$$
WYZ002>013-054>058-071-098>099-212200-
NORTHERN WYOMING

CITY           SKY/WX    TMP DP  RH WIND       PRES   REMARKS
JACKSON        MOSUNNY   81  45  28 SW17G29   30.08F
CODY           NOT AVBL
GREYBULL       FAIR      89  43  20 VRB6      29.81F
WORLAND        FAIR      91  46  21 NE6       29.81F
SHERIDAN       FAIR      81  49  32 W5        29.88F
BUFFALO        FAIR      77  48  35 E3        29.95F
GILLETTE       FAIR      84  47  27 VRB3      29.90F
NEWCASTLE      FAIR      86  45  23 W9        29.90S

$$
WYZ014>020-022>026-101>103-212200-
CENTRAL WYOMING

CITY           SKY/WX    TMP DP  RH WIND       PRES   REMARKS
BIG PINEY      FAIR      83  40  21 NW20G32   30.13F
PINEDALE       FAIR      79  39  24 NW25      30.15S
DUBOIS         FAIR      77  36  22 W33G45    30.08F
LANDER         FAIR      85  45  24 N14       29.96F
RIVERTON       FAIR      90  35  14 W22G28    29.95F
CASPER         FAIR      92  37  14 NW20G31   29.92F
DOUGLAS        FAIR      90  46  21 N7        29.92F

$$
WYZ021-027>030-104>119-212200-
SOUTHERN WYOMING

CITY           SKY/WX    TMP DP  RH WIND       PRES   REMARKS
EVANSTON       FAIR      85  43  22 W17G28    30.16F
KEMMERER         N/A     82  37  20 SW23G33   30.16F
FORT BRIDGER   FAIR      89  35  14 W21G30    30.17F
ROCK SPRINGS   FAIR      90  29  11 W30G38    30.09F
DIXON          FAIR      88  33  14 SW12      30.12F
RAWLINS        FAIR      88  31  13 NW21G31   30.09F
SARATOGA       FAIR      84  32  15 W18G24    30.13F
LARAMIE        FAIR      82  25  12 W22       30.14F
CHEYENNE       FAIR      92  32  12 W18G32    30.04F
TORRINGTON     FAIR      96  27   8 N13G25    29.85F HX  90
PINE BLUFFS    FAIR      93  32  11 N16       29.96F

$$




USA.gov is the U.S. government's official web portal to all federal, state and local government web resources and services.